This demonstration page uses our WeatherBlox Daily Observations layout. Learn more.

Left ArrowRight Arrow

Hourly Observations for August 4, 2021

Temp ( °F °C ) Dew Point ( °F °C ) Humidity (%) Winds ( mph kmh ) Pressure ( in mb ) Visibility ( mi km ) Precip ( " mm )
12:15 am 00:15 Clear 55 12.8 54 12.2 96 96 Calm 30.11 1020 10 16 0.00 0.00
12:35 am 00:35 Clear 55 12.7 54 12 96 96 Calm 30.11 1020 10 16 0.00 0.00
12:55 am 00:55 Clear 55 12.9 54 12.4 97 97 Calm 30.11 1020 10 16 0.00 0.00
1:15 am 01:15 Clear 55 12.5 53 11.8 96 96 Calm 30.11 1020 10 16 0.00 0.00
1:35 am 01:35 Clear 54 12.1 53 11.5 96 96 Calm 30.11 1020 10 16 0.00 0.00
1:55 am 01:55 Clear 54 12 52 11.2 95 95 Calm 30.11 1020 10 16 0.00 0.00
2:15 am 02:15 Clear 53 11.8 52 11.1 96 96 Calm 30.11 1020 10 16 0.00 0.00
2:35 am 02:35 Clear 53 11.6 52 11 96 96 Calm 30.12 1020 10 16 0.00 0.00
2:55 am 02:55 Clear 54 12 53 11.5 97 97 Calm 30.11 1020 10 16 0.00 0.00
3:15 am 03:15 Clear 53 11.5 52 10.9 96 96 Calm 30.12 1020 10 16 0.00 0.00
3:35 am 03:35 Clear 52 11.2 51 10.6 96 96 Calm 30.12 1020 10 16 0.00 0.00
3:55 am 03:55 Clear 52 11.1 51 10.6 97 97 SE 3 6 30.12 1020 10 16 0.00 0.00
4:15 am 04:15 Clear 52 11.1 51 10.6 97 97 Calm 30.12 1020 10 16 0.00 0.00
4:35 am 04:35 Clear 52 11.1 51 10.5 96 96 Calm 30.12 1020 10 16 0.00 0.00
4:55 am 04:55 Clear 52 11 51 10.4 96 96 Calm 30.12 1020 10 16 0.00 0.00
5:15 am 05:15 Clear 52 10.9 51 10.4 97 97 Calm 30.12 1020 10 16 0.00 0.00
5:35 am 05:35 Clear 52 10.9 51 10.6 98 98 Calm 30.12 1020 10 16 0.00 0.00
5:55 am 05:55 Clear 51 10.6 50 10.1 97 97 Calm 30.13 1020 10 16 0.00 0.00
6:15 am 06:15 Clear 51 10.5 50 10 97 97 Calm 30.13 1020 10 16 0.00 0.00
6:35 am 06:35 Clear 51 10.3 50 9.9 97 97 Calm 30.14 1021 10 16 0.00 0.00
6:55 am 06:55 Sunny 50 10.1 49 9.7 97 97 Calm 30.14 1021 10 16 0.00 0.00
7:15 am 07:15 Sunny 51 10.4 50 10 97 97 Calm 30.15 1021 10 16 0.00 0.00
7:35 am 07:35 Sunny 52 11.2 51 10.7 97 97 Calm 30.15 1021 10 16 0.00 0.00
7:55 am 07:55 Sunny 55 12.9 55 12.5 97 97 Calm 30.14 1021 10 16 0.00 0.00
8:15 am 08:15 Sunny 58 14.5 57 13.7 95 95 Calm 30.14 1020 10 16 0.00 0.00
8:35 am 08:35 Sunny 62 16.5 58 14.6 89 89 Calm 30.14 1021 10 16 0.00 0.00
8:55 am 08:55 Sunny 64 17.8 58 14.6 82 82 Calm 30.13 1020 10 16 0.00 0.00
9:15 am 09:15 Sunny 65 18.5 59 15.2 81 81 Calm 30.13 1020 10 16 0.00 0.00
9:35 am 09:35 Sunny 67 19.5 60 15.5 78 78 Calm 30.14 1021 10 16 0.00 0.00
9:55 am 09:55 Sunny 69 20.7 60 15.3 71 71 Calm 30.13 1020 10 16 0.00 0.00
10:15 am 10:15 Sunny 71 21.6 59 15.1 67 67 Calm 30.13 1020 10 16 0.00 0.00
10:35 am 10:35 Sunny 72 22.1 57 13.8 59 59 E 3 6 30.13 1020 10 16 0.00 0.00
11:15 am 11:15 Sunny 74 23.5 57 13.9 55 55 NE 5 7 30.12 1020 10 16 0.00 0.00
11:35 am 11:35 Sunny 75 23.7 56 13.4 53 53 E 3 6 30.12 1020 10 16 0.00 0.00
11:55 am 11:55 Sunny 75 23.9 56 13.6 53 53 NE 5 7 30.13 1020 10 16 0.00 0.00
12:15 pm 12:15 Sunny 76 24.2 56 13.4 51 51 N 5 7 30.12 1020 10 16 0.00 0.00
12:35 pm 12:35 Partly Cloudy 75 23.9 55 12.7 50 50 N 3 6 30.12 1020 10 16 0.00 0.00
12:55 pm 12:55 Partly Cloudy 74 23.4 56 13.2 53 53 NNE 3 6 30.13 1020 10 16 0.00 0.00
1:15 pm 13:15 Partly Cloudy 76 24.7 55 12.8 48 48 NE 8 13 30.12 1020 10 16 0.00 0.00
1:35 pm 13:35 Sunny 77 25 55 12.6 46 46 NE 6 9 30.11 1020 10 16 0.00 0.00
1:55 pm 13:55 Sunny 77 25.1 54 12 44 44 NNE 7 11 30.11 1020 10 16 0.00 0.00
2:15 pm 14:15 Sunny 78 25.3 52 11.2 41 41 NNE 3 6 30.10 1019 10 16 0.00 0.00
2:35 pm 14:35 Sunny 78 25.5 54 12 43 43 NNW 8 13 30.10 1019 10 16 0.00 0.00
2:55 pm 14:55 Sunny 78 25.8 54 12.3 43 43 NNE 6 9 30.10 1019 10 16 0.00 0.00
3:15 pm 15:15 Partly Cloudy 79 25.9 53 11.8 41 41 N 3 6 30.10 1019 10 16 0.00 0.00
3:35 pm 15:35 Partly Cloudy 78 25.8 55 12.7 44 44 E 6 9 30.10 1019 10 16 0.00 0.00
3:55 pm 15:55 Partly Cloudy 79 26.2 53 11.4 40 40 ENE 5 7 30.09 1019 10 16 0.00 0.00
4:15 pm 16:15 Partly Cloudy 78 25.7 53 11.4 41 41 Calm 30.09 1019 10 16 0.00 0.00
4:35 pm 16:35 Mostly Cloudy 76 24.4 54 12 46 46 Calm 30.09 1019 10 16 0.00 0.00
4:55 pm 16:55 Partly Cloudy 79 26.1 54 12.2 42 42 E 6 9 30.08 1018 10 16 0.00 0.00
5:15 pm 17:15 Partly Cloudy 79 26.1 55 12.6 43 43 NNE 8 13 30.08 1018 10 16 0.00 0.00
5:35 pm 17:35 Mostly Cloudy 77 24.9 54 12 45 45 NNE 6 9 30.07 1018 10 16 0.00 0.00
5:55 pm 17:55 Partly Cloudy 78 25.4 55 12.6 45 45 NE 3 6 30.07 1018 10 16 0.00 0.00
6:15 pm 18:15 Sunny 78 25.3 54 12.2 44 44 N 6 9 30.07 1018 10 16 0.00 0.00
6:35 pm 18:35 Sunny 77 25.2 54 12.4 45 45 NE 8 13 30.07 1018 10 16 0.00 0.00
6:55 pm 18:55 Sunny 77 25 55 12.7 46 46 NNE 7 11 30.07 1018 10 16 0.00 0.00
7:15 pm 19:15 Sunny 76 24.6 54 12.4 47 47 NE 6 9 30.07 1018 10 16 0.00 0.00
7:35 pm 19:35 Sunny 75 24 56 13.3 51 51 NNE 5 7 30.07 1018 10 16 0.00 0.00
7:55 pm 19:55 Sunny 74 23.2 56 13.4 54 54 NNE 3 6 30.08 1018 10 16 0.00 0.00
8:15 pm 20:15 Sunny 71 21.9 59 15.2 66 66 NNE 3 6 30.08 1019 10 16 0.00 0.00
8:35 pm 20:35 Sunny 69 20.3 61 15.9 76 76 NNE 3 6 30.09 1019 10 16 0.00 0.00
8:55 pm 20:55 Sunny 67 19.2 60 15.3 78 78 Calm 30.09 1019 10 16 0.00 0.00
9:15 pm 21:15 Clear 65 18.2 59 15.1 82 82 NNE 3 6 30.10 1019 10 16 0.00 0.00
9:35 pm 21:35 Clear 63 17 59 15.1 89 89 Calm 30.11 1020 10 16 0.00 0.00
9:55 pm 21:55 Clear 61 16.1 59 14.9 93 93 N 3 6 30.12 1020 10 16 0.00 0.00
10:15 pm 22:15 Clear 60 15.6 58 14.5 93 93 Calm 30.12 1020 10 16 0.00 0.00
10:35 pm 22:35 Clear 59 15 57 14 94 94 Calm 30.13 1020 10 16 0.00 0.00
10:55 pm 22:55 Clear 58 14.6 57 13.8 95 95 Calm 30.13 1020 10 16 0.00 0.00
11:15 pm 23:15 Clear 58 14.3 56 13.5 95 95 Calm 30.14 1021 10 16 0.00 0.00
11:35 pm 23:35 Clear 57 14.1 56 13.2 94 94 Calm 30.14 1021 10 16 0.00 0.00
11:55 pm 23:55 Clear 57 13.7 55 13 96 96 Calm 30.14 1021 10 16 0.00 0.00

Powered by AerisWeather